Location: Ku?niki
(51.4449°N, 17.8974°E)
Time: 01:40:49
(UTC+00:00)

ATLAS 3B R/B - Pass Details

Date: 18 September 2020
Orbit: 1016 x 1179 km, 63.8° (Epoch: 04 October)

Event Time Altitude Azimuth Distance (km) Brightness Sun altitude
Rises 21:22:22 0° 314° (NW) 3,837 6.5 -34.5°
Reaches altitude 10° 21:25:07 10° 307° (NW) 2,901 5.6 -34.7°
Enters shadow 21:30:03 36° 267° (W) 1,652 3.7 -35.0°
